Total_Precipitation_Accumulation
0.19 0.20 0.28 0.47 0.57 0.54 0.51 0.56 0.77 0.77 0.68 0.61 0.56 0.62 0.67 0.70 0.67 0.58 0.55 0.56 0.61 0.65 0.65 0.62 0.59 0.63 0.66 0.72 0.83 0.97 1.10 1.08 0.94 0.75 0.62 0.56 0.51 0.45 0.43 0.44 0.45 0.52 0.59 0.62
0.09 0.10 0.18 0.32 0.43 0.44 0.40 0.38 0.46 0.52 0.51 0.41 0.38 0.43 0.45 0.47 0.43 0.39 0.36 0.33 0.32 0.32 0.34 0.35 0.32 0.29 0.28 0.36 0.52 0.76 1.02 0.99 0.77 0.59 0.48 0.43 0.43 0.42 0.38 0.38 0.44 0.49 0.48 0.51
0.09 0.07 0.14 0.34 0.39 0.36 0.35 0.27 0.27 0.32 0.32 0.28 0.29 0.36 0.36 0.38 0.40 0.30 0.22 0.21 0.21 0.21 0.21 0.21 0.20 0.18 0.20 0.28 0.40 0.57 0.67 0.64 0.54 0.44 0.41 0.44 0.46 0.41 0.39 0.39 0.41 0.43 0.43 0.44
0.10 0.12 0.35 0.61 0.54 0.46 0.42 0.23 0.15 0.16 0.17 0.19 0.29 0.31 0.31 0.30 0.29 0.28 0.18 0.12 0.12 0.12 0.13 0.15 0.16 0.20 0.24 0.28 0.35 0.40 0.42 0.43 0.38 0.35 0.37 0.39 0.39 0.39 0.45 0.50 0.48 0.47 0.48 0.48
0.18 0.24 0.46 0.57 0.51 0.50 0.49 0.34 0.14 0.10 0.10 0.09 0.09 0.11 0.13 0.13 0.11 0.11 0.07 0.04 0.04 0.03 0.03 0.05 0.05 0.07 0.09 0.11 0.13 0.15 0.14 0.15 0.14 0.14 0.16 0.18 0.19 0.25 0.37 0.43 0.46 0.48 0.51 0.52
0.23 0.31 0.46 0.38 0.24 0.26 0.38 0.44 0.12 0.06 0.04 0.02 0.01 0.04 0.06 0.07 0.07 0.04 0.02 0.01 0.01 0.01 0.01 0.00 0.00 0.01 0.01 0.02 0.02 0.03 0.02 0.02 0.03 0.03 0.04 0.05 0.08 0.11 0.18 0.21 0.27 0.36 0.38 0.41
0.25 0.43 0.64 0.46 0.26 0.23 0.40 0.40 0.09 0.03 0.02 0.00 0.00 0.01 0.02 0.05 0.05 0.04 0.02 0.01 0.01 0.01 0.01 0.01 0.01 0.00 0.01 0.01 0.01 0.01 0.01 0.01 0.01 0.01 0.01 0.02 0.03 0.05 0.09 0.11 0.16 0.20 0.24 0.31
0.32 0.60 0.83 0.64 0.42 0.35 0.26 0.11 0.03 0.01 0.00 0.00 0.00 0.00 0.01 0.03 0.03 0.03 0.02 0.01 0.01 0.00 0.01 0.01 0.01 0.01 0.01 0.01 0.01 0.01 0.02 0.01 0.01 0.01 0.02 0.02 0.03 0.04 0.06 0.07 0.09 0.12 0.14 0.19
0.23 0.46 0.53 0.47 0.36 0.25 0.17 0.07 0.01 0.00 0.00 0.00 0.00 0.00 0.00 0.01 0.02 0.01 0.01 0.01 0.01 0.00 0.00 0.01 0.01 0.00 0.01 0.01 0.01 0.02 0.02 0.02 0.02 0.02 0.02 0.03 0.04 0.05 0.05 0.06 0.08 0.11 0.14 0.21
0.05 0.11 0.16 0.19 0.18 0.11 0.09 0.05 0.01 0.00 0.00 0.00 0.00 0.00 0.00 0.01 0.02 0.02 0.01 0.01 0.01 0.01 0.01 0.01 0.01 0.01 0.00 0.01 0.01 0.01 0.02 0.02 0.02 0.02 0.03 0.04 0.05 0.06 0.07 0.07 0.09 0.13 0.19 0.25
0.05 0.03 0.04 0.07 0.08 0.07 0.04 0.02 0.00 0.00 0.00 0.00 0.00 0.00 0.00 0.01 0.03 0.02 0.02 0.01 0.01 0.01 0.01 0.01 0.01 0.01 0.01 0.01 0.01 0.01 0.01 0.01 0.01 0.02 0.03 0.03 0.04 0.04 0.05 0.06 0.08 0.16 0.23 0.28
0.05 0.03 0.02 0.04 0.04 0.04 0.02 0.01 0.00 0.00 0.00 0.00 0.00 0.00 0.00 0.00 0.02 0.03 0.03 0.01 0.01 0.01 0.01 0.01 0.01 0.00 0.00 0.00 0.00 0.01 0.01 0.01 0.01 0.02 0.03 0.03 0.04 0.04 0.05 0.07 0.11 0.13 0.14 0.16
0.02 0.02 0.02 0.02 0.02 0.01 0.01 0.01 0.00 0.00 0.00 0.00 0.00 0.00 0.00 0.00 0.01 0.03 0.04 0.02 0.01 0.01 0.02 0.01 0.01 0.00 0.00 0.00 0.00 0.00 0.01 0.01 0.01 0.01 0.02 0.03 0.05 0.07 0.09 0.08 0.06 0.05 0.05 0.07
0.01 0.02 0.02 0.01 0.01 0.01 0.01 0.01 0.00 0.00 0.00 0.00 0.00 0.00 0.00 0.00 0.01 0.02 0.02 0.02 0.02 0.02 0.02 0.02 0.01 0.01 0.01 0.01 0.01 0.00 0.00 0.01 0.02 0.05 0.07 0.08 0.09 0.12 0.17 0.21 0.19 0.11 0.07 0.05
0.01 0.02 0.01 0.01 0.01 0.01 0.01 0.01 0.01 0.00 0.00 0.00 0.00 0.00 0.00 0.00 0.00 0.01 0.01 0.02 0.02 0.02 0.02 0.01 0.01 0.01 0.01 0.01 0.00 0.01 0.01 0.02 0.04 0.10 0.12 0.10 0.12 0.17 0.19 0.15 0.13 0.12 0.11 0.09
0.02 0.01 0.00 0.01 0.01 0.01 0.00 0.00 0.01 0.01 0.01 0.00 0.00 0.00 0.00 0.00 0.00 0.00 0.01 0.02 0.02 0.02 0.02 0.02 0.02 0.02 0.02 0.01 0.01 0.01 0.01 0.02 0.04 0.09 0.12 0.11 0.10 0.12 0.11 0.10 0.08 0.10 0.11 0.13
0.03 0.02 0.01 0.01 0.01 0.01 0.00 0.00 0.00 0.01 0.01 0.01 0.01 0.01 0.01 0.01 0.01 0.01 0.01 0.01 0.02 0.02 0.02 0.02 0.02 0.02 0.02 0.02 0.02 0.02 0.02 0.03 0.04 0.07 0.09 0.08 0.08 0.09 0.09 0.10 0.11 0.12 0.12 0.13
0.02 0.02 0.02 0.02 0.01 0.01 0.01 0.01 0.01 0.01 0.00 0.01 0.01 0.01 0.01 0.01 0.02 0.02 0.02 0.02 0.03 0.03 0.03 0.02 0.03 0.03 0.03 0.04 0.04 0.04 0.05 0.07 0.08 0.09 0.09 0.08 0.09 0.11 0.14 0.13 0.12 0.14 0.15 0.15
0.02 0.02 0.02 0.02 0.01 0.01 0.01 0.01 0.01 0.01 0.01 0.01 0.01 0.01 0.02 0.02 0.02 0.02 0.02 0.02 0.02 0.02 0.02 0.02 0.03 0.02 0.03 0.04 0.05 0.05 0.06 0.07 0.09 0.11 0.11 0.10 0.11 0.14 0.16 0.16 0.15 0.16 0.17 0.19
0.03 0.03 0.03 0.02 0.01 0.01 0.01 0.01 0.01 0.01 0.01 0.01 0.01 0.02 0.02 0.03 0.03 0.03 0.03 0.03 0.03 0.02 0.02 0.02 0.03 0.04 0.04 0.05 0.07 0.07 0.08 0.10 0.11 0.14 0.15 0.14 0.16 0.17 0.17 0.17 0.18 0.19 0.20 0.21
0.03 0.03 0.02 0.02 0.01 0.01 0.01 0.01 0.01 0.01 0.01 0.01 0.01 0.02 0.02 0.03 0.03 0.04 0.04 0.04 0.03 0.03 0.03 0.03 0.02 0.03 0.04 0.07 0.09 0.11 0.13 0.13 0.14 0.15 0.15 0.15 0.16 0.18 0.20 0.20 0.21 0.22 0.23 0.22
0.05 0.04 0.03 0.02 0.02 0.02 0.02 0.01 0.01 0.01 0.01 0.02 0.02 0.03 0.03 0.02 0.02 0.03 0.03 0.04 0.04 0.04 0.05 0.04 0.04 0.04 0.06 0.09 0.08 0.09 0.11 0.14 0.16 0.18 0.19 0.18 0.19 0.20 0.22 0.24 0.25 0.26 0.27 0.28
0.07 0.06 0.05 0.05 0.04 0.04 0.04 0.03 0.02 0.02 0.02 0.02 0.03 0.03 0.03 0.03 0.04 0.04 0.04 0.04 0.05 0.06 0.06 0.05 0.07 0.09 0.13 0.11 0.09 0.10 0.11 0.12 0.14 0.17 0.21 0.25 0.26 0.26 0.26 0.25 0.26 0.28 0.30 0.33
0.08 0.07 0.06 0.06 0.05 0.05 0.06 0.06 0.04 0.03 0.03 0.04 0.04 0.04 0.05 0.05 0.06 0.06 0.07 0.08 0.08 0.09 0.08 0.09 0.10 0.14 0.17 0.13 0.13 0.13 0.15 0.16 0.16 0.17 0.20 0.23 0.27 0.28 0.28 0.28 0.30 0.30 0.30 0.32
0.06 0.07 0.07 0.08 0.07 0.07 0.07 0.07 0.07 0.06 0.06 0.07 0.07 0.07 0.06 0.07 0.08 0.08 0.09 0.10 0.12 0.12 0.12 0.13 0.15 0.17 0.16 0.15 0.17 0.18 0.20 0.22 0.24 0.25 0.26 0.27 0.29 0.31 0.32 0.33 0.36 0.38 0.37 0.35
0.05 0.06 0.08 0.09 0.09 0.09 0.09 0.08 0.08 0.08 0.08 0.08 0.08 0.09 0.09 0.09 0.08 0.09 0.09 0.10 0.12 0.14 0.14 0.15 0.16 0.17 0.18 0.20 0.22 0.23 0.23 0.24 0.26 0.28 0.29 0.32 0.33 0.36 0.39 0.41 0.41 0.44 0.45 0.42
0.05 0.05 0.07 0.08 0.09 0.09 0.09 0.09 0.09 0.08 0.08 0.08 0.09 0.08 0.09 0.11 0.12 0.13 0.12 0.12 0.12 0.15 0.18 0.20 0.22 0.24 0.25 0.27 0.27 0.27 0.28 0.30 0.30 0.31 0.33 0.36 0.38 0.39 0.42 0.45 0.47 0.51 0.52 0.51